If you wish to contribute or participate in the discussions about articles you are invited to join SKYbrary as a registered user

 Actions

Orange-Caritat (BA 115) Air Base

From SKYbrary Wiki

LFMO
Airport
ICAO: LFMO
Summary
Name Orange-Caritat (BA 115) Air Base
Region Europe
Territory France FR.gif
Location , Provence-Alpes-Cote d'Azur
Serving Orange
Elevation 60.046 m
197 ft
197 ft60.046 m
Type medium airport
Coordinates 44° 8' 25.73" N, 4° 52' 0.18" E
Runways
Designator Length Width Surface ROPS
14/32 0 m0 ft
0 m0 ft
UNK /
15/33 2411 m7,910.105 ft
60 m196.85 ft
CON /


METAR
Observation LFMO 102200Z AUTO 35012KT CAVOK 05/M00 Q1021 BECMG VRB02KT
Station Orange
Date/Time 10 December 2019 22:00:00
Wind direction 350°
Wind speed 12 kts
Lowest cloud amount clouds and visibility OK
Temperature 5°C
Dew point
Humidity 70%
QNH 1021 hPa
Weather condition n/a